Flag for Gambia Weather past 2 weeks in Banjul, Gambia

Now
82 °F

Partly cloudy.


Feels Like: 88 °F
Forecast: N/A
Wind: 9 mph from West

Location: Banjul / Yundum

Current Time: Jul 6, 2015 at 10:47:59 PM

Latest Report: Jul 6, 2015 at 10:00 PM


Visibility: N/A

Pressure: 29.86 "Hg

Humidity: 74%

Dew point: 73 °F

Location of BanjulLocation

Historic Weather in Banjul — Graph

°F

Banjul temperature yesterday

Maximum temperature yesterday: 91 °F (at 1:00 PM)
Minimum temperature yesterday: 79 °F (at 12:00 AM)
Average temperature yesterday: 84 °F

Past Weeks' High & Low Weather Summary

 TemperatureHumidityPressure
High93 °F (Jun 23, 12:00 PM)94% (Jun 25, 5:00 AM)30.07 "Hg (Jun 25, 5:00 AM)
Low73 °F (Jul 1, 5:00 AM)37% (Jun 24, 7:00 PM)28.23 "Hg (Jun 24, 8:00 PM)
Average83 °F72%29.91 "Hg
* Reported Jun 21 9:00 PM — Jul 6 9:00 PM, Banjul, Weather by CustomWeather, © 2015

Note: Actual official high and low records may vary slightly from our data, if they occured in-between our weather recording intervals... More about our weather records

Advertising

Banjul weather history for previous 24 hours

 ConditionsComfort  
Time TempWeatherWind HumidityBarometerVisibility
9:00 PM
Mon, Jul 6
82 °FPartly cloudy.12 mph74%29.86 "HgN/A
8:00 PM82 °FPartly cloudy.6 mph74%29.80 "HgN/A
7:00 PM84 °FPartly sunny.12 mph70%29.80 "HgN/A
6:00 PM86 °FPartly sunny.9 mph66%29.80 "HgN/A
5:00 PM88 °FBroken clouds.18 mph66%29.83 "HgN/A
4:00 PM91 °FScattered clouds.17 mph56%29.83 "HgN/A
3:00 PM93 °FScattered clouds.14 mph53%29.83 "HgN/A
2:00 PM93 °FScattered clouds.7 mph53%29.83 "HgN/A
1:00 PM91 °FPassing clouds.10 mph52%29.86 "HgN/A
12:00 PM90 °FScattered clouds.12 mph59%29.86 "HgN/A
11:00 AM88 °FScattered clouds.12 mph62%29.89 "HgN/A
10:00 AM86 °FPartly sunny.2 mph66%29.86 "HgN/A
9:00 AM84 °FScattered clouds.10 mph70%29.83 "HgN/A
8:00 AM81 °FScattered clouds.No wind79%29.83 "HgN/A
7:00 AM79 °FScattered clouds.No wind84%29.83 "HgN/A
6:00 AM77 °FPassing clouds.No wind83%29.83 "HgN/A
5:00 AM79 °FPassing clouds.6 mph84%29.80 "HgN/A
4:00 AM79 °FPassing clouds.6 mph84%29.86 "HgN/A
3:00 AM79 °FPassing clouds.8 mph84%29.86 "HgN/A
2:00 AM81 °FPassing clouds.6 mph79%29.86 "HgN/A
1:00 AM81 °FPassing clouds.No wind79%29.86 "HgN/A
12:00 AM81 °FPassing clouds.10 mph79%29.86 "HgN/A
11:00 PM
Sun, Jul 5
81 °FPassing clouds.9 mph79%29.86 "HgN/A
10:00 PM82 °FPassing clouds.7 mph74%29.83 "HgN/A
Weather by CustomWeather, © 2015

See weather overviewHow to use our weather pages